KM4FZA-13 Weather Reports


time (UTC)temp
F
wind
direction
speed
knots
gust
knots
rain 1hr
in
rain 24hr
in
rain mn
in
humidity
%
barometer
mb
20260906111521 71 0.0 0.0 0.00 0.20 0.00 99 989.2
20260906110527 71 0.0 0.0 0.00 0.20 0.00 99 989.0
20260906105532 71 77 1.7 2.6 0.00 0.20 0.00 99 989.1
20260906104520 70 77 1.7 2.6 0.00 0.20 0.00 99 988.9
20260906103525 70 86 1.7 2.6 0.00 0.20 0.00 99 988.7
20260906102531 70 90 0.0 1.7 0.00 0.20 0.00 99 988.5
20260906101518 69 0.0 0.0 0.00 0.20 0.00 99 988.3
20260906100544 68 0.0 0.0 0.00 0.20 0.00 98 988.3
20260906095529 68 0.0 0.0 0.00 0.20 0.00 98 988.2
20260906094517 68 0.0 0.0 0.00 0.20 0.00 98 988.0
20260906093522 68 0.0 0.0 0.00 0.20 0.00 98 988.0
20260906092549 68 0.0 0.0 0.00 0.20 0.00 97 987.8
20260906091515 68 0.0 0.0 0.00 0.20 0.00 97 987.8
20260906090521 69 0.0 0.0 0.00 0.20 0.00 97 987.8
20260906085526 69 0.0 0.0 0.00 0.20 0.00 97 987.6
20260906084532 68 0.0 0.0 0.00 0.20 0.00 97 987.6
20260906083519 68 0.0 0.0 0.00 0.20 0.00 97 987.4
20260906082525 68 0.0 0.0 0.00 0.20 0.00 97 987.3
20260906081530 69 0.0 0.0 0.00 0.20 0.00 97 987.2
20260906080518 69 0.0 0.0 0.00 0.20 0.00 97 987.2
20260906075543 69 0.0 0.0 0.00 0.20 0.00 97 987.2
20260906074529 69 0.0 0.0 0.00 0.20 0.00 97 987.3
20260906073516 69 0.0 0.0 0.00 0.20 0.00 97 987.2
20260906072522 69 0.0 0.0 0.00 0.20 0.00 97 987.4
20260906071527 70 0.0 0.0 0.00 0.20 0.00 97 987.4
20260906070535 70 0.0 0.0 0.00 0.20 0.00 97 987.5
20260906065520 70 0.0 0.0 0.00 0.20 0.00 97 987.5
20260906064526 70 0.0 0.0 0.00 0.20 0.00 97 987.7
20260906063531 70 0.0 0.0 0.00 0.20 0.00 97 987.7
20260906062519 70 0.0 0.0 0.00 0.20 0.00 97 987.9
20260906061525 70 0.0 0.0 0.00 0.20 0.00 97 987.9
20260906060530 70 0.0 0.0 0.00 0.20 0.00 97 987.9
20260906030016 72 0.0 0.0 0.00 0.20 0.20 96 988.4
20260906025021 72 0.0 0.0 0.00 0.20 0.20 96 988.4
20260906024027 72 0.0 0.0 0.00 0.20 0.20 96 988.4
20260906023026 72 0.0 0.0 0.00 0.20 0.20 96 988.4
20260906022021 72 0.0 0.0 0.00 0.20 0.20 96 988.4
20260906021025 72 0.0 0.0 0.00 0.20 0.20 96 988.1
20260906020025 72 270 0.0 1.7 0.00 0.20 0.20 96 988.0
20260906015018 72 0.0 0.0 0.00 0.20 0.20 96 988.0
20260906014044 72 0.0 0.0 0.00 0.20 0.20 96 988.0
20260906013023 72 0.0 0.0 0.00 0.20 0.20 96 987.9
20260906012017 72 0.0 0.0 0.00 0.20 0.20 95 988.0
20260906011022 72 0.0 0.0 0.00 0.20 0.20 95 987.8
20260906010022 72 0.0 0.0 0.00 0.20 0.20 95 987.9
20260906005015 72 0.0 0.0 0.00 0.20 0.20 95 987.9
20260906004021 73 0.0 0.0 0.00 0.20 0.20 95 987.9
20260906003020 73 0.0 0.0 0.00 0.20 0.20 94 987.8
20260906002021 73 0.0 0.0 0.00 0.20 0.20 93 987.7
20260906001019 74 0.0 0.0 0.00 0.20 0.20 93 987.8
20260906000019 74 0.0 0.0 0.00 0.20 0.20 93 987.6
20260905235018 75 0.0 0.0 0.00 0.20 0.20 93 987.5
20260905234038 76 0.0 0.0 0.00 0.20 0.20 92 987.3
20260905233017 77 0.0 0.0 0.00 0.20 0.20 91 987.1
20260905232018 77 0.0 0.0 0.00 0.20 0.20 90 987.1
20260905231016 77 0.0 0.0 0.00 0.20 0.20 90 986.9
20260905230016 77 113 1.7 3.5 0.00 0.20 0.20 90 986.8
20260905225015 78 92 0.9 2.6 0.00 0.20 0.20 87 986.7
20260905224014 79 0.0 0.0 0.00 0.20 0.20 85 986.6
20260905223020 80 282 0.9 2.6 0.00 0.20 0.20 84 986.6
20260905222026 80 0.0 0.0 0.00 0.20 0.20 85 986.9
20260905221112 78 0.0 0.0 0.00 0.20 0.20 89 987.3
20260905220019 78 254 0.9 2.6 0.00 0.20 0.20 89 987.4
20260905215024 77 243 2.6 2.6 0.00 0.20 0.20 89 987.5
20260905214030 77 0.0 0.0 0.00 0.20 0.20 90 987.6
20260905213017 77 0.0 0.0 0.00 0.20 0.20 91 987.6
20260905212023 76 0.0 0.0 0.00 0.20 0.20 90 987.8
20260905211028 76 0.0 0.0 0.00 0.20 0.20 91 987.7
20260905210016 75 0.0 0.0 0.00 0.20 0.20 91 988.2
20260905205042 74 0.0 0.0 0.00 0.20 0.20 90 988.1
20260905204027 73 0.0 0.0 0.00 0.20 0.20 93 988.1
20260905203032 72 0.0 0.0 0.00 0.20 0.20 94 988.0
20260905202020 71 0.0 0.0 0.01 0.20 0.20 94 987.7
20260905201025 71 260 1.7 2.6 0.01 0.20 0.20 94 987.4
20260905200031 71 0.0 1.7 0.10 0.20 0.20 93 987.7
20260905195018 71 72 0.9 1.7 0.20 0.20 0.20 93 987.8
20260905194024 71 248 0.0 2.6 0.20 0.20 0.20 91 987.8
20260905193029 71 98 2.6 5.2 0.20 0.20 0.20 90 987.9
20260905192017 72 96 0.9 2.6 0.19 0.19 0.19 86 987.4
20260905191023 72 87 7.0 12.2 0.19 0.19 0.19 87 988.5
20260905190028 76 110 7.8 13.0 0.10 0.10 0.10 83 989.1
20260905185015 87 284 10.4 17.4 0.00 0.00 0.00 56 988.1
20260905183520 97 236 2.6 4.3 0.00 0.00 0.00 45 986.8
20260905182519 98 245 3.5 6.1 0.00 0.00 0.00 42 987.1
20260905181540 97 194 3.5 5.2 0.00 0.00 0.00 46 987.4
20260905180518 95 271 1.7 4.3 0.00 0.00 0.00 48 987.6
20260905175517 96 87 2.6 4.3 0.00 0.00 0.00 47 987.6
20260905174517 98 207 3.5 5.2 0.00 0.00 0.00 44 988.0
20260905173537 99 267 2.6 4.3 0.00 0.00 0.00 44 988.4
20260905172516 98 237 3.5 5.2 0.00 0.00 0.00 45 988.5
20260905171515 98 259 2.6 5.2 0.00 0.00 0.00 45 988.5
20260905170535 97 199 3.5 5.2 0.00 0.00 0.00 47 988.6
20260905165515 97 218 2.6 5.2 0.00 0.00 0.00 48 988.7
20260905164532 96 250 1.7 4.3 0.00 0.00 0.00 49 989.0
20260905163540 97 214 1.7 3.5 0.00 0.00 0.00 49 989.1
20260905162526 95 213 5.2 7.0 0.00 0.00 0.00 50 989.2
20260905161531 95 212 2.6 4.3 0.00 0.00 0.00 52 989.3
20260905160538 95 227 3.5 6.1 0.00 0.00 0.00 52 989.4
20260905155544 94 184 2.6 4.3 0.00 0.00 0.00 55 989.5
20260905154529 93 197 3.5 5.2 0.00 0.00 0.00 54 989.6
20260905153537 93 183 1.7 4.3 0.00 0.00 0.00 57 989.6
20260905152543 93 234 1.7 4.3 0.00 0.00 0.00 56 989.7
20260905151548 91 205 1.7 3.5 0.00 0.00 0.00 59 989.7
20260905150515 90 229 0.9 2.6 0.00 0.00 0.00 62 989.8
20260905145521 89 208 3.5 6.1 0.00 0.00 0.00 63 989.8
20260905144547 89 237 2.6 5.2 0.00 0.00 0.00 66 989.8
20260905143531 87 212 3.5 4.3 0.00 0.00 0.00 68 989.8
20260905142519 87 249 2.6 3.5 0.00 0.00 0.00 69 989.8
20260905141525 86 220 3.5 5.2 0.00 0.00 0.00 71 989.7
20260905140530 85 274 2.6 4.3 0.00 0.00 0.00 71 989.8
20260905135518 84 240 1.7 3.5 0.00 0.00 0.00 73 990.0
20260905134523 83 209 2.6 3.5 0.00 0.00 0.00 75 990.0
20260905133529 82 237 3.5 4.3 0.00 0.00 0.00 75 990.0
20260905132516 82 240 1.7 3.5 0.00 0.00 0.00 77 990.1
20260905131522 81 284 2.6 3.5 0.00 0.00 0.00 77 990.2
20260905130527 81 100 0.0 1.7 0.00 0.00 0.00 78 990.2
20260905125515 81 210 1.7 2.6 0.00 0.00 0.00 77 990.3
20260905124520 80 0.0 0.0 0.00 0.00 0.00 81 990.2
20260905123526 78 210 1.7 2.6 0.00 0.00 0.00 84 990.3
20260905122531 77 208 2.6 3.5 0.00 0.00 0.00 86 990.2
20260905121519 76 0.0 0.0 0.00 0.00 0.00 89 990.2
20260905120525 74 0.0 0.0 0.00 0.00 0.00 91 990.2
20260905115530 72 0.0 0.0 0.00 0.00 0.00 92 990.0
20260905114517 72 0.0 0.0 0.00 0.00 0.00 93 989.8
20260905113523 72 0.0 0.0 0.00 0.00 0.00 93 989.5
20260905112528 72 0.0 0.0 0.00 0.00 0.00 93 989.3